TimeMDT,TemperatureF,Dew PointF,Humidity,Sea Level PressureIn,VisibilityMPH,Wind Direction,Wind SpeedMPH,Gust SpeedMPH,PrecipitationIn,Events,Conditions,WindDirDegrees,DateUTC
12:48 AM,37.0,28.9,73,30.41,-9999.0,North,3.5,-,N/A,,Unknown,360,2013-10-04 06:48:00
1:48 AM,37.0,28.9,73,30.42,-9999.0,NW,3.5,-,N/A,,Unknown,320,2013-10-04 07:48:00
2:48 AM,37.9,28.0,68,30.43,-9999.0,North,5.8,-,N/A,,Unknown,350,2013-10-04 08:48:00
3:48 AM,37.9,28.9,70,30.43,-9999.0,North,6.9,-,N/A,,Unknown,350,2013-10-04 09:48:00
4:48 AM,39.0,27.0,62,30.42,-9999.0,North,11.5,-,N/A,,Unknown,10,2013-10-04 10:48:00
5:48 AM,37.9,27.0,65,30.45,-9999.0,North,9.2,-,N/A,,Unknown,360,2013-10-04 11:48:00
6:48 AM,37.0,28.0,70,30.49,-9999.0,North,8.1,-,N/A,,Unknown,350,2013-10-04 12:48:00
7:48 AM,36.0,28.0,73,30.48,-9999.0,NNW,9.2,-,N/A,,Unknown,340,2013-10-04 13:48:00
8:48 AM,36.0,30.0,79,30.48,-9999.0,North,10.4,-,N/A,,Unknown,350,2013-10-04 14:48:00
9:48 AM,37.0,28.9,73,30.51,-9999.0,North,11.5,-,N/A,,Unknown,360,2013-10-04 15:48:00
10:48 AM,37.9,26.1,62,30.51,-9999.0,North,13.8,-,N/A,,Unknown,10,2013-10-04 16:48:00
11:48 AM,39.9,27.0,60,30.51,-9999.0,North,10.4,-,N/A,,Unknown,10,2013-10-04 17:48:00
12:48 PM,41.0,26.1,55,30.50,-9999.0,North,15.0,-,N/A,,Unknown,360,2013-10-04 18:48:00
1:48 PM,43.0,25.0,49,30.47,-9999.0,North,12.7,20.7,N/A,,Unknown,350,2013-10-04 19:48:00
2:48 PM,46.0,25.0,44,30.46,-9999.0,North,9.2,21.9,N/A,,Unknown,360,2013-10-04 20:48:00
3:48 PM,46.0,24.1,42,30.46,-9999.0,North,11.5,18.4,N/A,,Unknown,10,2013-10-04 21:48:00
4:48 PM,46.0,24.1,42,30.45,-9999.0,North,11.5,-,N/A,,Unknown,350,2013-10-04 22:48:00
5:48 PM,44.1,23.0,43,30.44,-9999.0,North,8.1,-,N/A,,Unknown,10,2013-10-04 23:48:00
6:48 PM,37.0,24.1,59,30.45,-9999.0,ENE,6.9,-,N/A,,Unknown,60,2013-10-05 00:48:00
7:48 PM,28.9,21.9,75,30.46,-9999.0,Calm,Calm,-,N/A,,Unknown,0,2013-10-05 01:48:00
8:48 PM,28.0,21.9,78,30.47,-9999.0,Calm,Calm,-,N/A,,Unknown,0,2013-10-05 02:48:00
9:48 PM,26.1,19.9,78,30.46,-9999.0,Calm,Calm,-,N/A,,Unknown,0,2013-10-05 03:48:00
10:48 PM,23.0,19.9,88,30.45,-9999.0,WNW,5.8,-,N/A,,Unknown,300,2013-10-05 04:48:00
11:48 PM,23.0,19.9,88,30.43,-9999.0,WNW,5.8,-,N/A,,Unknown,290,2013-10-05 05:48:00